Date String (YYYY-MM-DD hh:mm:ss) UTC,Instrument flags,Ambient pressure (hPa),Sample flow (lpm),Bypass flow (lpm),Sample temperature (°C),Ambient temperature (°C),ASC tube jacket temperature (°C),LED temperature (°C),Box temperature (°C),Sample RH (%),Span deviation,Mass concentration (μg/m³),Mass concentration (μg/m³),Mass concentration (μg/m³)
DateTimeUTC,F1_M11,P_M11,Q1_M11,Q2_M11,T1_M11,T2_M11,T3_M11,T4_M11,T5_M11,U1_M11,ZSPAN_M11,X2_M11,X0_M11,X1_M11
2022-08-01 14:00:00,,0829.5,5.00,0.00,29.8,28.4,00.0,38.6,31.7,25.8,0000.0,0005.83,0009.39,0005.49
2022-08-01 14:01:00,,0829.6,5.00,0.00,29.8,28.5,00.0,38.6,31.7,27.8,0000.0,0005.84,0009.09,0005.49
2022-08-01 14:02:00,,0829.6,5.00,0.00,29.8,28.6,00.0,38.6,31.7,26.5,0000.0,0005.83,0008.40,0005.48
2022-08-01 14:03:00,,0829.6,4.99,0.00,29.8,28.7,00.0,38.6,31.7,25.0,0000.0,0005.81,0008.38,0005.48
2022-08-01 14:04:00,,0829.7,5.01,0.00,29.9,28.8,00.0,38.6,31.8,27.0,0000.0,0005.81,0008.26,0005.48
2022-08-01 14:05:00,,0829.8,5.00,0.00,29.9,28.9,00.0,38.7,31.9,30.7,0000.0,0005.83,0008.05,0005.49
2022-08-01 14:06:00,,0829.6,5.00,0.00,29.9,28.9,00.0,38.7,31.9,30.3,0000.0,0005.84,0008.13,0005.50
2022-08-01 14:07:00,,0829.6,5.00,0.00,30.0,29.0,00.0,38.7,31.9,30.8,0000.0,0005.85,0008.18,0005.50
2022-08-01 14:08:00,,0829.6,5.00,0.00,30.0,29.0,00.0,38.7,32.0,32.6,0000.0,0005.87,0008.29,0005.52
2022-08-01 14:09:00,,0829.7,5.00,0.00,30.0,28.6,00.0,38.7,31.8,31.7,0000.0,0005.88,0008.34,0005.52
2022-08-01 14:10:00,,0829.6,5.01,0.00,29.9,27.9,00.0,38.7,31.7,29.8,0000.0,0005.88,0008.35,0005.53
2022-08-01 14:11:00,,0829.6,5.00,0.00,29.9,27.6,00.0,38.6,31.6,26.3,0000.0,0005.89,0008.35,0005.55
2022-08-01 14:12:00,,0829.6,5.01,0.00,29.8,27.6,00.0,38.6,31.5,26.3,0000.0,0005.89,0008.76,0005.56
2022-08-01 14:13:00,,0829.7,4.99,0.00,29.8,27.7,00.0,38.6,31.5,27.7,0000.0,0005.91,0009.33,0005.57
2022-08-01 14:14:00,,0829.8,5.00,0.00,29.8,27.9,00.0,38.6,31.6,26.3,0000.0,0005.93,0009.40,0005.59
2022-08-01 14:15:00,,0829.7,5.00,0.00,29.8,28.0,00.0,38.6,31.6,25.9,0000.0,0005.95,0009.41,0005.61
2022-08-01 14:16:00,,0829.7,4.99,0.00,29.8,28.1,00.0,38.6,31.6,27.3,0000.0,0005.94,0009.39,0005.61
2022-08-01 14:17:00,,0829.8,5.01,0.00,29.8,28.3,00.0,38.6,31.6,25.4,0000.0,0005.92,0009.55,0005.62
2022-08-01 14:18:00,,0829.8,5.00,0.00,29.8,28.4,00.0,38.6,31.7,25.9,0000.0,0005.93,0009.84,0005.62
2022-08-01 14:19:00,,0829.7,5.00,0.00,29.8,28.5,00.0,38.6,31.7,25.7,0000.0,0005.92,0009.75,0005.62
2022-08-01 14:20:00,,0829.7,5.00,0.00,29.8,28.6,00.0,38.6,31.8,25.8,0000.0,0005.93,0009.76,0005.63
2022-08-01 14:30:00,,0829.6,4.99,0.00,29.8,27.7,00.0,38.6,31.5,26.4,0000.0,0006.00,0010.15,0005.60
2022-08-01 14:31:00,,0829.7,5.01,0.00,29.8,27.8,00.0,38.6,31.6,26.6,0000.0,0005.99,0010.11,0005.60
2022-08-01 14:32:00,,0829.8,5.00,0.00,29.8,27.9,00.0,38.6,31.6,26.5,0000.0,0006.00,0010.11,0005.61
2022-08-01 14:33:00,,0829.7,5.00,0.00,29.8,28.1,00.0,38.6,31.6,26.5,0000.0,0005.98,0010.16,0005.59
2022-08-01 14:34:00,,0829.9,5.00,0.00,29.8,28.2,00.0,38.6,31.6,27.1,0000.0,0005.95,0009.30,0005.56
2022-08-01 14:35:00,,0829.7,5.00,0.00,29.8,28.3,00.0,38.6,31.7,26.8,0000.0,0005.94,0009.00,0005.56
2022-08-01 14:36:00,,0829.8,5.00,0.00,29.8,28.5,00.0,38.6,31.7,26.3,0000.0,0005.95,0009.07,0005.56
2022-08-01 14:37:00,,0829.6,5.00,0.00,29.8,28.6,00.0,38.6,31.7,26.4,0000.0,0005.89,0008.72,0005.55
2022-08-01 14:38:00,,0829.6,5.00,0.00,29.8,28.7,00.0,38.6,31.8,26.9,0000.0,0005.85,0008.61,0005.54
2022-08-01 14:39:00,,0829.5,4.99,0.00,29.8,28.7,00.0,38.6,31.8,26.3,0000.0,0005.84,0009.05,0005.54
2022-08-01 14:40:00,,0829.5,5.00,0.00,29.9,28.8,00.0,38.6,31.8,26.4,0000.0,0005.83,0009.45,0005.54
2022-08-01 14:41:00,,0829.5,5.01,0.00,29.9,28.9,00.0,38.7,31.9,26.7,0000.0,0005.84,0009.68,0005.53
2022-08-01 14:42:00,,0829.6,5.00,0.00,29.9,28.5,00.0,38.6,31.8,27.5,0000.0,0005.84,0009.79,0005.51
2022-08-01 14:43:00,,0829.6,5.00,0.00,29.9,27.8,00.0,38.6,31.6,26.7,0000.0,0005.86,0009.84,0005.52
2022-08-01 14:44:00,,0829.5,5.00,0.00,29.8,27.6,00.0,38.6,31.6,26.5,0000.0,0005.87,0010.28,0005.53
2022-08-01 14:45:00,,0829.6,4.99,0.00,29.8,27.6,00.0,38.6,31.5,26.4,0000.0,0005.86,0010.47,0005.54
2022-08-01 14:46:00,,0829.6,5.01,0.00,29.7,27.7,00.0,38.5,31.5,26.2,0000.0,0005.87,0010.52,0005.54
2022-08-01 14:47:00,,0829.5,5.00,0.00,29.7,27.8,00.0,38.5,31.5,25.9,0000.0,0005.84,0010.61,0005.54
2022-08-01 14:48:00,,0829.5,5.00,0.00,29.7,28.0,00.0,38.5,31.5,25.3,0000.0,0005.85,0010.72,0005.53
2022-08-01 14:49:00,,0829.6,5.00,0.00,29.7,28.1,00.0,38.5,31.6,25.4,0000.0,0005.88,0010.56,0005.54
2022-08-01 14:50:00,,0829.6,5.00,0.00,29.7,28.3,00.0,38.5,31.6,25.7,0000.0,0005.90,0010.17,0005.55
2022-08-01 14:51:00,,0829.5,4.99,0.00,29.7,28.4,00.0,38.5,31.7,26.3,0000.0,0005.92,0010.33,0005.56
2022-08-01 14:52:00,,0829.6,4.99,0.00,29.7,28.5,00.0,38.5,31.7,26.4,0000.0,0005.92,0010.17,0005.57
2022-08-01 14:53:00,,0829.5,5.01,0.00,29.8,28.6,00.0,38.6,31.7,25.7,0000.0,0005.93,0010.13,0005.56
2022-08-01 14:54:00,,0829.6,4.99,0.00,29.8,28.7,00.0,38.6,31.7,25.5,0000.0,0005.92,0010.18,0005.56
2022-08-01 14:55:00,,0829.6,5.00,0.00,29.8,28.7,00.0,38.6,31.7,25.4,0000.0,0005.93,0009.76,0005.55
2022-08-01 14:56:00,,0829.5,5.01,0.00,29.8,28.8,00.0,38.6,31.8,25.6,0000.0,0005.96,0009.87,0005.55
2022-08-01 14:57:00,,0829.5,4.99,0.00,29.9,28.8,00.0,38.6,31.9,25.1,0000.0,0005.94,0009.94,0005.54
2022-08-01 14:58:00,,0829.5,5.00,0.00,29.9,28.5,00.0,38.6,31.8,25.2,0000.0,0005.96,0009.80,0005.54
2022-08-01 14:59:00,,0829.5,5.01,0.00,29.8,27.8,00.0,38.6,31.6,25.4,0000.0,0005.94,0009.70,0005.55
